Temperature
18 18 18 18 18 18 18 18 18 18 18 18 18 18 18 18 18 18 18 18 18 18 17 17 17 17 17 17 17 17 17 16 16 16 16 16 16 16 16 16 16 16 16
18 18 18 18 18 18 18 18 18 18 18 18 18 18 18 18 18 17 17 18 18 18 17 17 17 17 17 17 17 17 17 16 16 16 16 16 16 16 16 16 16 16 16
18 18 18 18 18 18 18 18 18 18 18 18 18 18 18 17 18 17 17 17 17 17 17 17 17 17 17 17 17 17 17 16 16 16 16 16 16 16 15 16 16 16 16
18 18 18 18 18 18 18 18 18 18 18 18 18 18 18 18 17 17 17 17 17 17 17 17 17 17 17 16 16 16 16 16 16 16 16 16 16 15 15 15 15 15 15
18 18 18 18 18 18 18 18 18 18 18 18 18 18 18 18 17 17 17 17 17 17 17 17 17 17 17 16 16 16 16 16 16 16 16 16 15 15 15 15 15 15 15
18 18 18 18 18 18 18 18 18 18 18 18 18 18 18 18 18 17 17 17 17 17 17 16 16 17 17 17 16 16 16 16 16 16 16 16 15 15 15 15 15 15 15
18 18 18 18 18 18 18 18 18 18 18 18 18 18 18 18 18 17 17 17 17 17 16 16 16 16 16 16 16 16 16 16 16 16 16 16 15 15 15 15 15 15 15
18 18 18 18 18 18 18 18 18 18 18 18 18 19 19 19 18 18 17 17 17 17 16 16 16 16 16 16 16 16 16 16 16 16 15 15 15 15 15 15 15 15 15
18 18 18 18 18 18 18 18 18 18 18 18 18 18 19 20 19 18 17 17 17 17 17 16 16 16 16 16 16 16 16 16 16 16 15 15 15 15 15 15 15 15 15
18 18 18 18 18 18 18 18 18 18 18 18 18 18 18 18 18 18 18 17 17 17 17 17 16 16 16 16 16 16 16 16 16 16 15 15 15 15 15 15 15 15 15
19 18 18 18 18 18 18 18 18 18 18 18 18 18 18 18 18 18 18 17 17 17 17 16 16 16 16 16 15 16 16 16 16 16 15 15 15 15 15 15 15 15 15
19 19 18 19 19 18 18 18 18 18 18 18 18 18 18 18 18 18 18 18 18 17 17 16 16 16 16 16 16 16 16 16 16 16 15 15 15 15 15 15 15 15 15
19 19 19 19 19 19 19 18 19 18 18 18 18 18 18 18 18 18 18 18 17 17 17 16 16 16 16 16 16 16 16 16 16 15 15 15 15 15 15 15 15 15 14
19 19 19 19 19 19 18 19 18 18 18 18 18 18 18 18 18 18 18 18 18 18 17 17 16 16 16 15 16 16 15 16 15 15 15 15 15 15 15 15 15 15 14
19 19 19 19 19 19 19 19 18 18 18 18 18 18 18 18 18 17 17 17 17 18 18 17 16 16 16 15 15 15 15 15 16 15 15 15 15 15 15 15 14 14 14
19 19 19 19 19 19 19 19 18 18 18 18 18 18 18 18 18 17 17 17 17 17 17 17 16 16 16 15 15 15 15 15 15 15 15 15 15 15 14 14 14 14 14
20 19 19 19 19 19 19 19 18 18 18 18 18 18 18 18 17 17 17 17 17 17 16 16 16 16 16 15 15 15 15 15 15 15 15 15 14 14 14 14 14 14 14
20 19 19 19 19 19 18 18 18 18 18 18 18 17 17 17 17 17 17 17 17 16 16 16 16 16 16 15 15 15 14 14 14 14 15 14 14 14 14 14 14 14 14
20 19 19 19 19 18 18 18 18 18 18 18 17 17 17 17 17 17 17 16 16 16 16 16 16 15 15 15 15 14 14 14 14 14 14 14 14 14 14 14 14 13 13
20 19 19 19 19 18 18 18 18 18 17 17 17 17 17 17 16 16 16 16 16 16 16 16 15 15 15 15 15 14 14 14 14 14 14 14 14 14 14 13 13 13 13
19 19 19 19 19 18 18 18 18 18 17 17 17 17 17 17 16 16 16 16 16 15 15 15 15 15 15 15 14 14 14 14 14 13 13 13 13 13 13 13 13 13 13
20 19 19 19 19 18 18 18 18 17 17 17 17 17 16 16 16 16 16 16 15 15 15 15 15 15 14 14 14 14 14 14 14 13 13 13 13 13 13 13 13 13 13
19 19 19 19 19 19 18 18 18 17 17 16 16 16 16 16 16 16 15 15 15 15 15 15 14 14 14 14 14 14 13 13 13 13 13 13 13 13 13 13 13 13 13
19 19 19 18 18 18 18 18 18 17 16 16 16 16 16 16 15 15 15 15 15 14 14 14 14 14 14 14 13 13 13 13 13 13 13 13 13 13 13 13 13 13 13
19 19 18 18 18 18 18 18 17 16 16 16 16 16 16 15 15 15 15 14 14 14 14 14 14 14 13 13 13 13 13 13 13 13 13 13 13 13 13 13 13 12 12
18 18 18 18 18 17 17 17 17 16 16 16 15 15 15 15 15 15 14 14 14 14 14 13 13 13 13 13 13 13 13 13 13 13 13 13 13 12 12 13 12 12 12
Wind_Speed
4 4 3 3 4 4 4 3 3 3 2 3 3 2 1 1 2 2 5 9 7 6 5 5 6 7 8 8 8 9 10 10 11 11 11 11 11 10 10 10 10 10 9
3 3 3 3 3 3 2 2 2 2 1 1 2 2 2 2 2 2 3 7 8 6 5 5 5 6 7 8 9 10 10 11 12 12 12 12 12 11 11 11 11 11 10
3 2 2 2 2 3 3 2 2 2 2 2 2 2 2 1 1 1 2 3 5 8 7 6 5 6 6 7 8 9 10 10 12 12 13 13 12 12 12 12 11 12 11
3 2 2 2 2 2 2 2 2 1 1 1 1 1 1 2 2 2 3 3 3 3 7 8 6 5 6 7 7 7 8 9 10 11 12 12 12 12 12 12 11 12 11
3 2 2 2 3 2 2 1 2 1 1 1 2 2 1 2 2 2 2 2 2 2 2 7 7 5 5 5 6 6 8 9 9 10 11 12 12 12 12 12 12 12 12
3 2 3 3 2 2 2 1 1 1 1 1 1 1 1 1 2 2 2 2 2 2 2 2 4 5 6 4 4 5 6 7 8 10 11 11 12 12 12 12 12 12 12
3 2 2 3 2 2 2 2 2 2 2 1 1 1 1 2 1 2 2 2 1 1 1 2 2 2 3 6 4 4 5 6 6 8 9 10 10 11 11 12 13 13 13
3 3 2 2 2 2 2 2 2 2 1 2 2 2 2 2 3 2 2 2 2 2 2 2 1 2 3 2 3 3 3 3 4 6 7 8 9 10 10 11 11 12 13
3 2 3 2 2 3 2 2 3 3 2 2 2 2 2 1 0 2 2 2 2 2 2 2 2 2 2 2 2 3 3 3 3 4 5 6 8 10 10 11 11 10 11
3 3 3 3 3 2 2 3 3 2 3 3 2 3 3 2 2 1 2 2 2 2 2 2 1 2 3 2 1 1 2 3 2 2 3 4 5 7 10 10 10 9 10
3 4 4 4 3 3 3 2 2 3 3 3 3 2 2 2 4 3 3 2 2 2 2 2 2 2 2 3 2 2 4 3 3 2 2 2 2 3 6 8 8 8 8
4 4 4 4 4 3 3 4 3 4 3 3 3 3 3 3 3 3 4 4 3 2 2 2 3 2 2 3 2 5 5 4 3 3 3 3 2 2 3 6 8 8 8
4 5 4 4 4 4 4 4 4 4 4 4 4 4 4 4 4 3 4 4 4 3 2 3 3 3 3 2 2 5 5 4 4 4 4 4 3 3 3 5 7 7 7
4 4 5 5 5 5 4 4 4 4 4 4 5 4 4 4 4 4 4 4 4 3 3 3 2 3 2 2 2 5 4 6 5 5 5 4 4 3 3 4 5 6 6
5 5 5 5 5 5 5 5 4 4 4 5 5 5 5 4 4 4 5 5 5 5 4 3 3 2 3 2 2 3 3 6 6 5 5 5 4 4 4 4 5 5 5
5 5 5 5 5 5 5 5 5 4 5 5 4 4 5 4 4 4 5 5 5 6 5 3 2 2 2 2 4 4 3 6 7 7 6 5 5 4 5 4 5 6 6
7 7 6 6 6 5 5 5 5 5 5 4 4 5 5 5 5 5 4 5 5 5 6 4 3 2 3 4 3 4 5 5 5 9 8 7 6 6 6 6 5 6 6
7 7 6 6 6 6 5 5 5 5 5 5 5 4 5 4 5 5 5 6 6 6 6 6 4 4 4 5 4 5 4 5 4 8 9 9 8 8 8 7 7 7 8
7 6 6 6 6 5 5 5 5 5 5 5 5 4 4 5 5 5 5 6 6 6 6 6 5 3 4 4 4 5 5 4 4 6 10 10 10 10 9 9 9 9 9
6 6 6 6 5 5 5 5 6 6 5 5 5 4 4 5 5 5 5 6 6 6 6 6 5 4 4 4 4 5 4 5 4 4 5 6 9 11 11 11 11 11 11
7 6 6 6 6 5 5 5 5 6 5 5 5 5 4 3 2 3 4 4 5 5 5 5 5 4 4 3 4 4 4 4 4 4 4 5 7 7 10 13 13 13 12
6 6 6 6 6 5 3 3 5 5 5 5 5 5 5 4 4 5 4 4 4 5 5 5 5 5 5 5 4 5 4 4 4 3 4 5 5 6 6 8 12 15 15
6 6 6 6 6 4 4 4 5 6 6 5 5 5 4 3 4 4 5 7 6 6 6 6 7 6 6 5 5 6 6 6 5 3 4 6 5 6 6 7 14 15 16
6 6 6 6 5 4 5 5 6 7 6 5 5 5 5 4 3 4 5 5 5 5 6 6 6 6 5 4 5 7 6 6 6 5 5 6 5 6 6 6 15 17 17
5 5 5 5 5 4 5 6 6 5 5 6 5 4 4 4 3 4 5 6 6 5 6 6 6 6 5 4 5 5 5 6 6 5 5 5 6 5 6 6 9 17 18
5 5 5 5 5 4 4 5 6 5 5 5 4 4 3 4 3 4 6 6 6 6 5 5 6 7 7 7 8 7 7 7 7 6 4 5 5 5 5 5 6 9 12
Wind_Direction
123 115 113 122 125 127 143 144 134 137 159 160 161 149 145 121 143 139 136 148 162 173 182 190 194 196 203 205 214 221 221 221 219 215 214 214 214 212 210 212 212 212 212
123 126 132 128 128 131 125 139 136 155 164 136 146 144 168 162 156 174 165 155 165 171 181 190 199 204 213 215 219 225 227 227 224 220 219 218 217 217 216 219 221 219 212
146 152 140 145 127 129 143 151 143 162 166 162 155 161 169 175 164 178 194 183 173 173 180 191 205 211 219 223 226 229 229 230 227 221 218 218 218 218 222 225 224 223 217
160 171 148 128 131 154 162 148 167 157 146 170 157 167 157 165 180 196 200 199 204 187 177 184 200 217 230 235 237 236 232 231 229 224 220 218 219 218 221 225 223 222 220
167 179 155 131 172 172 167 188 130 179 164 181 186 172 194 196 203 212 214 213 204 208 190 168 187 204 223 238 243 243 239 232 230 224 221 221 221 221 222 224 222 223 222
165 190 172 159 186 169 173 163 150 169 210 209 222 139 232 233 220 217 228 214 200 208 221 216 200 196 199 221 244 249 246 235 233 227 225 224 223 222 222 223 225 224 219
171 197 193 163 198 174 185 188 187 173 190 179 213 210 212 208 211 215 227 241 211 208 222 224 241 251 199 191 216 245 249 242 237 234 228 226 222 219 220 223 225 220 218
191 193 191 203 181 178 184 193 199 232 208 197 248 259 239 187 185 194 208 216 226 215 210 207 228 259 277 234 166 207 242 253 242 237 235 231 226 226 226 226 225 218 219
191 202 196 209 201 216 188 199 206 220 232 225 240 273 288 330 320 169 197 219 231 247 243 211 216 238 257 265 236 180 212 234 240 243 241 235 227 225 224 224 220 215 215
194 205 213 208 222 221 191 218 190 223 235 246 224 245 280 319 289 267 210 194 206 234 252 252 226 217 231 235 207 85 171 220 228 230 230 228 231 226 218 217 214 211 210
203 212 218 217 218 226 216 238 217 236 235 253 256 247 237 233 250 267 272 259 238 230 227 234 234 229 233 235 225 158 162 189 201 193 200 202 223 230 221 217 212 211 209
202 204 212 215 220 222 214 218 219 216 240 259 266 261 250 248 249 254 269 262 257 241 226 232 233 228 226 226 205 128 157 185 194 190 189 187 204 215 219 216 212 213 214
203 200 214 218 225 220 221 216 208 224 220 228 241 251 256 259 264 261 264 270 271 251 223 227 224 224 224 227 181 153 172 190 198 202 202 202 202 206 212 208 209 213 217
213 200 210 219 223 222 221 211 217 212 214 225 240 250 259 260 257 252 259 266 267 260 235 224 211 217 225 229 147 191 179 174 192 202 204 203 199 200 205 192 199 208 211
215 207 214 221 222 220 223 219 225 224 219 228 233 232 248 258 255 255 256 258 268 273 265 226 222 203 217 212 160 214 206 162 185 193 195 194 196 196 188 180 185 193 199
218 211 214 220 220 217 215 219 222 221 227 232 241 252 256 261 258 252 253 254 255 270 275 270 246 227 223 224 181 224 214 170 186 188 189 192 193 186 179 178 184 190 189
212 213 215 217 218 218 215 215 229 225 229 235 239 240 249 265 265 259 251 251 250 253 259 263 253 230 221 245 218 225 224 221 196 182 187 190 190 187 184 178 178 184 183
213 213 215 217 220 218 215 216 225 226 230 234 241 247 254 251 251 261 257 253 249 246 252 259 255 246 235 232 225 235 237 234 225 174 184 189 191 190 189 186 184 181 178
212 213 214 220 223 221 219 220 226 231 233 237 242 243 252 253 254 257 258 259 256 251 249 255 254 249 250 234 225 232 236 242 234 181 183 192 196 196 194 192 191 187 181
206 208 208 214 220 225 227 230 230 234 238 241 248 248 250 251 255 257 254 255 259 259 252 252 253 248 244 228 227 234 228 221 230 216 196 195 195 200 200 198 198 194 189
204 202 205 210 216 220 226 228 229 229 233 239 244 244 245 242 260 266 269 266 261 258 257 254 253 252 246 236 239 244 245 236 223 223 217 207 197 206 199 201 201 198 194
202 201 207 212 215 219 193 212 237 235 237 239 244 245 238 221 212 209 233 261 266 253 259 262 259 259 256 254 252 252 248 243 246 210 225 234 221 221 210 206 189 191 195
201 203 209 213 217 218 192 191 217 235 241 245 248 251 254 236 218 234 222 219 228 232 239 250 260 264 265 259 255 251 245 249 260 237 232 243 231 230 223 199 176 188 196
205 206 208 212 217 216 185 192 214 228 244 247 246 245 247 261 249 250 250 242 244 238 234 240 256 260 263 270 251 249 253 249 246 234 226 250 242 240 236 208 181 190 198
205 204 205 206 211 212 191 199 217 227 233 243 243 242 244 245 259 244 243 248 252 250 230 223 244 252 253 248 252 252 245 247 251 239 220 246 250 247 240 227 194 193 200
205 205 205 208 210 213 196 196 217 226 229 237 234 231 220 238 258 230 236 245 251 258 259 241 236 236 237 225 214 231 244 247 256 255 226 234 246 241 248 234 218 203 206
Height
1541 1543 1544 1545 1547 1548 1549 1550 1551 1552 1553 1554 1555 1555 1556 1556 1557 1557 1557 1557 1557 1557 1558 1558 1558 1558 1558 1559 1559 1560 1560 1561 1561 1562 1563 1563 1564 1565 1566 1567 1568 1569 1569
1542 1543 1544 1546 1547 1548 1549 1550 1551 1552 1553 1554 1554 1554 1555 1556 1556 1556 1557 1556 1556 1556 1556 1556 1557 1557 1557 1557 1557 1558 1558 1559 1559 1560 1561 1561 1562 1563 1564 1565 1566 1567 1568
1542 1544 1545 1546 1547 1548 1549 1550 1551 1552 1553 1553 1553 1554 1554 1555 1555 1555 1556 1556 1556 1555 1555 1555 1555 1555 1555 1555 1555 1556 1556 1556 1557 1557 1558 1559 1560 1561 1562 1563 1564 1564 1565
1542 1544 1545 1547 1547 1548 1549 1550 1551 1552 1553 1553 1554 1554 1554 1554 1554 1554 1555 1555 1555 1555 1554 1553 1553 1554 1554 1554 1553 1553 1553 1553 1554 1554 1555 1556 1557 1558 1559 1560 1561 1562 1563
1543 1544 1545 1546 1547 1548 1549 1550 1551 1552 1552 1553 1553 1553 1553 1553 1554 1554 1554 1554 1554 1553 1553 1552 1552 1552 1552 1551 1551 1551 1551 1551 1551 1551 1552 1553 1554 1555 1556 1557 1558 1559 1560
1543 1544 1545 1546 1548 1549 1549 1549 1550 1550 1551 1552 1553 1553 1553 1553 1553 1553 1553 1553 1552 1552 1552 1552 1551 1550 1549 1549 1549 1548 1548 1548 1548 1549 1549 1550 1550 1551 1553 1554 1555 1556 1557
1543 1544 1546 1546 1547 1548 1548 1549 1550 1550 1551 1551 1552 1552 1552 1552 1552 1552 1552 1552 1551 1551 1550 1550 1550 1549 1548 1547 1547 1546 1546 1546 1546 1546 1546 1546 1547 1548 1549 1550 1551 1552 1553
1543 1544 1545 1546 1547 1547 1548 1548 1549 1550 1550 1551 1551 1551 1551 1552 1550 1551 1550 1550 1550 1550 1549 1549 1547 1547 1547 1546 1545 1544 1544 1543 1543 1543 1543 1543 1544 1545 1546 1547 1547 1548 1549
1542 1543 1544 1546 1546 1547 1548 1548 1548 1549 1550 1550 1550 1551 1550 1550 1550 1550 1549 1549 1548 1548 1548 1547 1546 1545 1544 1544 1544 1542 1542 1541 1541 1541 1540 1540 1541 1542 1542 1543 1544 1544 1545
1542 1543 1544 1545 1545 1546 1546 1547 1548 1548 1548 1549 1549 1549 1549 1549 1549 1549 1549 1548 1547 1546 1546 1546 1545 1544 1543 1542 1541 1540 1540 1539 1539 1538 1538 1538 1538 1539 1539 1540 1540 1541 1542
1541 1542 1543 1543 1544 1545 1545 1545 1546 1546 1547 1547 1548 1548 1547 1547 1548 1548 1547 1547 1546 1545 1544 1544 1543 1542 1541 1541 1540 1539 1538 1537 1537 1536 1536 1536 1536 1536 1536 1537 1537 1538 1539
1540 1541 1541 1542 1543 1544 1544 1544 1544 1544 1544 1545 1545 1546 1546 1546 1545 1545 1545 1544 1544 1544 1543 1542 1542 1541 1540 1539 1538 1537 1536 1535 1535 1534 1534 1534 1534 1534 1534 1534 1535 1535 1536
1539 1539 1540 1540 1541 1541 1542 1542 1542 1543 1543 1543 1543 1543 1544 1544 1543 1543 1543 1542 1542 1542 1541 1540 1540 1539 1538 1537 1536 1535 1534 1533 1533 1532 1532 1532 1532 1531 1531 1531 1532 1532 1533
1538 1538 1538 1539 1539 1540 1540 1540 1541 1541 1540 1541 1541 1541 1541 1541 1541 1541 1541 1540 1540 1539 1538 1538 1537 1537 1536 1535 1534 1532 1532 1531 1530 1530 1530 1529 1529 1529 1529 1529 1529 1529 1530
1535 1536 1536 1537 1537 1538 1538 1538 1539 1538 1538 1539 1539 1539 1539 1539 1539 1539 1538 1538 1538 1537 1536 1535 1535 1534 1533 1533 1531 1530 1530 1528 1528 1528 1527 1527 1527 1526 1526 1526 1526 1527 1527
1533 1534 1534 1535 1535 1536 1536 1536 1536 1536 1536 1536 1536 1536 1536 1536 1536 1536 1535 1535 1535 1535 1534 1533 1533 1532 1531 1531 1529 1528 1527 1526 1526 1525 1525 1525 1524 1524 1524 1524 1524 1525 1525
1531 1531 1532 1533 1533 1534 1534 1534 1534 1534 1534 1534 1533 1533 1533 1532 1533 1533 1532 1532 1532 1532 1531 1530 1530 1529 1528 1527 1527 1526 1525 1524 1524 1523 1523 1522 1522 1522 1522 1522 1522 1522 1523
1528 1529 1530 1530 1531 1531 1532 1532 1532 1532 1531 1531 1530 1530 1530 1529 1529 1529 1529 1529 1528 1528 1528 1527 1526 1526 1525 1524 1523 1523 1523 1522 1521 1520 1520 1520 1520 1519 1519 1519 1520 1520 1520
1525 1526 1527 1528 1528 1529 1529 1529 1529 1529 1528 1528 1527 1527 1526 1526 1525 1525 1525 1525 1526 1525 1525 1524 1523 1523 1522 1521 1520 1520 1520 1519 1519 1518 1517 1517 1517 1517 1517 1517 1517 1518 1518
1522 1523 1524 1525 1525 1526 1526 1526 1526 1525 1525 1525 1524 1523 1523 1522 1522 1522 1522 1521 1522 1522 1521 1521 1520 1520 1519 1518 1517 1517 1517 1516 1516 1516 1515 1514 1514 1514 1514 1515 1515 1515 1516
1519 1520 1521 1521 1522 1522 1522 1522 1522 1522 1522 1521 1521 1520 1519 1519 1518 1518 1519 1518 1518 1518 1518 1518 1517 1516 1516 1515 1515 1515 1514 1514 1513 1513 1513 1512 1512 1512 1512 1512 1512 1512 1513
1516 1517 1518 1518 1518 1519 1519 1519 1519 1519 1518 1518 1517 1517 1516 1516 1515 1515 1514 1514 1514 1514 1514 1514 1514 1513 1512 1513 1512 1512 1512 1511 1511 1511 1510 1510 1510 1510 1510 1509 1509 1510 1510
1513 1513 1514 1515 1515 1515 1515 1515 1515 1515 1515 1514 1514 1513 1513 1513 1512 1511 1511 1511 1510 1510 1510 1510 1509 1509 1509 1509 1508 1508 1508 1507 1507 1507 1507 1507 1507 1507 1507 1506 1506 1506 1507
1509 1510 1511 1511 1512 1511 1511 1512 1511 1511 1511 1511 1510 1510 1509 1509 1509 1508 1508 1507 1507 1506 1506 1506 1505 1505 1504 1504 1504 1504 1504 1504 1503 1503 1503 1504 1504 1503 1504 1503 1502 1503 1503
1506 1506 1507 1507 1508 1508 1508 1508 1508 1508 1507 1507 1507 1506 1506 1505 1505 1505 1504 1504 1503 1503 1502 1502 1501 1501 1500 1500 1500 1500 1500 1500 1500 1500 1500 1500 1500 1500 1500 1499 1499 1499 1499
1502 1503 1503 1504 1504 1504 1504 1504 1504 1505 1504 1503 1503 1503 1502 1501 1501 1501 1500 1500 1499 1499 1499 1498 1497 1497 1496 1496 1495 1496 1496 1496 1496 1496 1495 1496 1496 1496 1496 1495 1495 1495 1495